Laurinburg-Maxton, NC

2:05 AM EDT on July 26, 2017 (GMT -0400)
Laurinburg-Maxton

Weather History for KMEB - March, 2013

Change the Weather History Date:

Friday, March 1, 2013

  Actual Average (KHFF) Record (KHFF)
Temperature  
Mean Temperature 42 °F -  
Max Temperature 54 °F 53 °F 80 °F (2012)
Min Temperature 30 °F 36 °F 23 °F (2002)
Degree Days  
Heating Degree Days 23    
Moisture  
Dew Point 28 °F    
Average Humidity 60    
Maximum Humidity 85    
Minimum Humidity 35    
Precipitation  
Precipitation 0.00 in - - ()
Sea Level Pressure  
Sea Level Pressure 29.90 in    
Wind  
Wind Speed 5 mph (NW)    
Max Wind Speed 14 mph    
Max Gust Speed 20 mph    
Visibility 10 miles    
Events      
Averages and records for this station are not official NWS values.
T = Trace of Precipitation, MM = Missing Value Source: NWS Daily Summary

Daily Weather History Graph

Daily Weather History Graph

Search for Another Location

Airport or City:

Trip Planner

Search our weather history database for the weather conditions in past years. The results will help you decide how hot, cold, wet, or windy it might be!

Date:

Astronomy

Mar. 01, 2013 Rise Set
Actual Time 6:46 AM EST 6:13 PM EST
Civil Twilight 6:21 AM EST 6:38 PM EST
Nautical Twilight 5:51 AM EST 7:08 PM EST
Astronomical Twilight 5:22 AM EST 7:37 PM EST
Moon 10:31 PM EST (3/1) 8:43 AM EST (3/1)
Length of Visible Light 12h 17m
Length of Day
11h 27m
Waning Gibbous, 83% of the Moon is Illuminated
Mar 1
Waning Gibbous
Mar 4
Last Quarter
Mar 11
New
Mar 19
First Quarter
Mar 27
Full

Hourly Weather History & Observations

Time (EST) Temp. Windchill Dew Point Humidity Pressure Visibility Wind Dir Wind Speed Gust Speed Precip Events Conditions
12:52 AM 34.0 °F 29.8 °F 27.0 °F 75% 29.90 in 10.0 mi WNW 4.6 mph - N/A   Clear
1:52 AM 33.1 °F 30.0 °F 26.1 °F 75% 29.89 in 10.0 mi WNW 3.5 mph - N/A   Clear
2:52 AM 32.0 °F 27.5 °F 27.0 °F 82% 29.89 in 10.0 mi WNW 4.6 mph - N/A   Clear
3:52 AM 33.1 °F 28.7 °F 26.1 °F 75% 29.89 in 10.0 mi NW 4.6 mph - N/A   Clear
4:52 AM 32.0 °F 27.5 °F 26.1 °F 79% 29.90 in 10.0 mi NW 4.6 mph - N/A   Clear
6:52 AM 30.9 °F - 27.0 °F 85% 29.92 in 10.0 mi Calm Calm - N/A   Clear
7:52 AM 34.0 °F 29.8 °F 28.0 °F 79% 29.92 in 10.0 mi WNW 4.6 mph - N/A   Clear
8:52 AM 41.0 °F 36.4 °F 28.9 °F 62% 29.93 in 10.0 mi NW 6.9 mph - N/A   Clear
9:52 AM 46.0 °F 42.5 °F 28.0 °F 50% 29.92 in 10.0 mi NW 6.9 mph - N/A   Clear
10:52 AM 48.9 °F - 27.0 °F 43% 29.92 in 10.0 mi NNW 10.4 mph 17.3 mph N/A   Clear
11:52 AM 52.0 °F - 27.0 °F 38% 29.90 in 10.0 mi Variable 3.5 mph - N/A   Partly Cloudy
12:52 PM 54.0 °F - 27.0 °F 35% 29.88 in 10.0 mi WNW 8.1 mph 19.6 mph N/A   Mostly Cloudy
1:52 PM 52.0 °F - 27.0 °F 38% 29.86 in 10.0 mi West 13.8 mph 17.3 mph N/A   Overcast
2:52 PM 50.0 °F - 27.0 °F 41% 29.86 in 10.0 mi NW 11.5 mph - N/A   Overcast
3:52 PM 50.0 °F - 28.0 °F 43% 29.86 in 10.0 mi WNW 11.5 mph 19.6 mph N/A   Overcast
4:52 PM 48.9 °F - 28.0 °F 44% 29.87 in 10.0 mi WNW 10.4 mph - N/A   Overcast
5:52 PM 46.9 °F - 28.0 °F 48% 29.89 in 10.0 mi NW 5.8 mph - N/A   Overcast
7:52 PM 45.0 °F - 30.9 °F 58% 29.92 in 10.0 mi Calm Calm - N/A   Overcast
8:52 PM 44.1 °F - 30.9 °F 60% 29.92 in 10.0 mi Calm Calm - N/A   Overcast
10:52 PM 39.9 °F 36.7 °F 32.0 °F 73% 29.91 in 10.0 mi ENE 4.6 mph - N/A   Overcast
11:52 PM 39.9 °F 37.8 °F 32.0 °F 73% 29.92 in 10.0 mi West 3.5 mph - N/A   Overcast